Regional Weather Roundup
Issued by NWS

Home | Current Version | Previous Version | Graphics & Text | Print | Product List | Glossary On
Versions: 1 2 3 4 5 6 7 8 9 10 11 12 13 14 15 16 17 18 19 20 21 22 23 24 25 26 27 28 29 30 31 32 33 34 35 36 37 38 39 40 41 42 43 44 45 46 47 48 49 50
000
ASUS43 KDMX 171507
RWRIA

WEATHER ROUNDUP FOR IOWA
NATIONAL WEATHER SERVICE DES MOINES IA
900 AM CST WED DEC 17 2014

NOTE: "FAIR" INDICATES FEW OR NO CLOUDS BELOW 12,000 FEET WITH NO
SIGNIFICANT WEATHER AND/OR OBSTRUCTIONS TO VISIBILITY.

* - THESE STATIONS ARE NOT NWS STATIONS...THUS NOT UNDER NWS
QUALITY CONTROL.  THEY ALSO DO NOT REPORT WEATHER SUCH
AS PRECIPITATION OR FOG.

IAZ001>003-012>014-020>022-031>034-043>046-171600-
   NORTHWEST IOWA

CITY           SKY/WX    TMP DP  RH WIND       PRES   REMARKS
CARROLL *      SUNNY     14  10  85 NW6       30.34R WCI   5
CHEROKEE *     PTCLDY    10   9  92 CALM      30.35R
DENISON *      SUNNY     14  10  85 CALM      30.32F
LE MARS *      CLEAR     10   9  92 CALM      30.36S
ORANGE CITY *  CLEAR     10   9  92 NW3       30.33R
SHELDON *      PTCLDY     9   5  85 W6        30.33R WCI  -1
SIOUX CITY     PTCLDY    14   9  80 NW3       30.37S
SPENCER        PTCLDY    12   7  80 W3        30.33R
STORM LAKE *   CLEAR     10   7  85 W7        30.33R WCI   0
$$

IAZ055>058-069>071-079>083-090>094-171600-
   SOUTHWEST IOWA

CITY           SKY/WX    TMP DP  RH WIND       PRES   REMARKS
ATLANTIC *     SUNNY     16  12  86 N6        30.34S WCI   7
AUDUBON *      SUNNY     16   9  73 CALM      30.33S
CLARINDA *     MOSUNNY   19  14  79 N7        30.37S WCI  10
COUNCIL BLFS * MOSUNNY   18  14  86 CALM      30.33F
CRESTON *      SUNNY     16  12  86 NE5       30.33S WCI   9
HARLAN  *      SUNNY     16  14  93 NE7       30.37F WCI   6
LAMONI         MOSUNNY   17  13  84 N3        30.33S
RED OAK *      CLOUDY    18  12  79 CALM      30.37R
SHENANDOAH *   PTSUNNY   19  16  86 N6        30.37S WCI  11
$$

IAZ047>049-059>061-072>074-084-171600-
   CENTRAL IOWA

CITY           SKY/WX    TMP DP  RH WIND       PRES   REMARKS
AMES           SUNNY     16  10  77 NW8       30.34R WCI   5
ANKENY *       SUNNY     16  12  86 NW6       30.35S WCI   7
CHARITON *     SUNNY     16  12  86 NW7       30.34S WCI   6
DES MOINES     MOSUNNY   17  10  74 NW6       30.35S WCI   9
GRINNELL*      MOSUNNY   16  12  86 W7        30.33R WCI   6
KNOXVILLE *    SUNNY     16  10  79 W6        30.34S WCI   7
MARSHALLTOWN   SUNNY     15  11  83 NW10      30.32R WCI   2
PELLA *        MOSUNNY   16  12  86 W6        30.37R WCI   7
PERRY *          N/A     16  12  86 NW6       30.35R WCI   7
$$

IAZ004>006-015-016-023>025-035-036-171600-
   NORTH CENTRAL IOWA

CITY           SKY/WX    TMP DP  RH WIND       PRES   REMARKS
ALGONA *       SUNNY     12   9  85 N9        30.33R WCI   0
CLARION *      FLURRIES  12  10  92 NW10      30.33R WCI  -1
ESTHERVILLE    PTCLDY    10   7  87 NW8       30.32R FOG     WCI  -2
FORT DODGE *   MOSUNNY   12   7  79 NW6       30.34R WCI   3
MASON CITY     MOSUNNY   11   8  88 NW13      30.32R WCI  -4
FOREST CITY *  SUNNY     12   9  85 NW9       30.31R WCI   0
IOWA FALLS *     N/A     14  10  85 NW12      30.33R WCI   0
$$

IAZ007>011-017>019-026>030-037>042-050>054-066-171600-
   NORTHEAST IOWA

CITY           SKY/WX    TMP DP  RH WIND       PRES   REMARKS
CEDAR RAPIDS   MOSUNNY   16  12  84 W12       30.31R WCI   3
CHARLES CITY * FLURRIES  12  10  92 NW9       30.31R WCI   0
CLINTON *      CLOUDY    21  16  79 NW15      30.32R WCI   8
DECORAH *      CLOUDY    14   9  79 W6G13     30.27R WCI   5
DUBUQUE        CLOUDY    19  15  84 W16       30.26R WCI   4
MONTICELLO *   CLOUDY    18  16  93 W13       30.30R WCI   4
OELWEIN *      PTSUNNY   14  10  85 NW10      30.30R WCI   1
WATERLOO       MOSUNNY   14  10  84 NW10      30.32R WCI   1
$$

IAZ064-065-067-068-078-171600-
   EAST CENTRAL IOWA

CITY           SKY/WX    TMP DP  RH WIND       PRES   REMARKS
DAVENPORT      CLOUDY    21  15  78 W13       30.31R WCI   9
IOWA CITY      PTSUNNY   19  14  81 W12       30.35R WCI   7
MT. PLEASANT * CLOUDY    19  16  86 NW8       30.35R WCI   9
MUSCATINE *    CLOUDY    21  16  79 W12       30.35R WCI   9
QUAD CITIES    CLOUDY    23  16  74 NW10      30.31R WCI  12
$$

IAZ062-063-075>077-085>089-095>099-171600-
   SOUTHEAST IOWA

CITY           SKY/WX    TMP DP  RH WIND       PRES   REMARKS
BURLINGTON     CLOUDY    21  16  81 W8        30.34R WCI  11
FAIRFIELD *    CLOUDY    19  14  79 W10       30.35R WCI   8
FORT MADISON * CLOUDY    21  18  86 W7        30.35S WCI  13
KEOKUK *       CLOUDY    19  16  86 NW8       30.35S WCI   9
OSKALOOSA *    CLOUDY    18  16  93 W10       30.35R WCI   6
CENTERVILLE *  PTSUNNY   18  16  93 NW5       30.36R WCI  11
OTTUMWA        CLOUDY    19  14  81 W8        30.35R WCI   9
WASHINGTON *   CLOUDY    21  19  93 W10       30.34R WCI  10
$$

ABBREVIATIONS USED IN REMARKS
   TC - TEMPERATURES IN CELSIUS
  WCI - WIND CHILL INDEX
   HX - HEAT INDEX
  VSB - VISIBILITY
$$




USA.gov is the U.S. government's official web portal to all federal, state and local government web resources and services.